CHINASAT 16 (SJ-13)

Last updated on Fri Dec 19 2025 00:02:52 GMT+0000 (Coordinated Universal Time)

1 42662U 17018A 25352.64747103 -.00000327 00000+0 00000+0 0 9997 2 42662 0.0528 89.7509 0007265 159.9677 181.3774 1.00268836 31929
UTC large
Height (km)
Speed (km/s)
/
Latitude / Longitude
Inclination (degrees)
Orbital Period (minutes)
Azimuth
Elevation
Range (km)
Doppler Factor

Next 0 passes for location: London (51.5072 / 0.1276)

Sorry there are no passes over London.